Flag for U.S.A. Weather past 2 weeks in Lexington-Fayette, Kentucky, U.S.A.

Now
33 °F

Fog.


Feels Like: 21 °F
Forecast: 29 / 41 °F
Wind: 21 mph from Northwest

Location: Blue Grass Airport

Current Time: Jan 26, 2015 at 4:08:37 AM

Latest Report: Jan 26, 2015 at 2:54 AM


Visibility: 1 mi

Pressure: 29.70 "Hg

Humidity: 100%

Dew point: 33 °F

Location of Lexington-FayetteLocation

Historic Weather in Lexington-Fayette — Graph

°F

Lexington-Fayette temperature yesterday

Maximum temperature yesterday: 43 °F (at 3:54 PM)
Minimum temperature yesterday: 34 °F (at 12:54 AM)
Average temperature yesterday: 38 °F

Past Weeks' High & Low Weather Summary

 TemperatureHumidityPressure
High56 °F (Jan 20, 2:54 PM)100% (Jan 12, 7:54 AM)30.53 "Hg (Jan 12, 7:54 AM)
Low20 °F (Jan 11, 2:54 AM)30% (Jan 11, 2:54 PM)29.65 "Hg (Jan 25, 3:54 PM)
Average35 °F75%30.12 "Hg
* Reported Jan 11 2:54 AM — Jan 26 2:54 AM, Lexington-Fayette, Weather by CustomWeather, © 2014

Note: Actual official high and low records may vary slightly from our data, if they occured in-between our weather recording intervals... More about our weather records

Advertising

Lexington-Fayette weather history for previous 24 hours

 ConditionsComfort  
Time TempWeatherWind HumidityBarometerVisibility
2:54 AM
Jan 26
33 °FFog.21 mph100%29.70 "Hg1 mi
1:54 AM37 °FFog.10 mph100%29.67 "Hg0 mi
12:54 AM39 °FFog.7 mph100%29.65 "Hg2 mi
11:54 PM
Jan 25
40 °FMostly cloudy.8 mph97%29.66 "Hg10 mi
10:54 PM40 °FFog.5 mph100%29.65 "Hg6 mi
10:01 PM40 °FFog.6 mph97%29.65 "Hg3 mi
8:54 PM41 °FRain. Fog.No wind96%29.68 "Hg5 mi
7:54 PM41 °FLight rain. Overcast.3 mph93%29.68 "Hg7 mi
6:54 PM41 °FRain. Mostly cloudy.6 mph89%29.68 "Hg7 mi
5:54 PM43 °FLight rain. Mostly cloudy.6 mph76%29.66 "Hg10 mi
4:54 PM43 °FMostly cloudy.5 mph71%29.65 "Hg10 mi
3:54 PM43 °FMore clouds than sun.6 mph71%29.65 "Hg10 mi
2:54 PM42 °FMostly cloudy.6 mph73%29.66 "Hg10 mi
1:54 PM40 °FMore clouds than sun.6 mph77%29.69 "Hg10 mi
12:54 PM39 °FMostly cloudy.10 mph76%29.70 "Hg10 mi
11:54 AM38 °FMore clouds than sun.13 mph76%29.73 "Hg10 mi
10:54 AM38 °FPassing clouds.8 mph76%29.76 "Hg10 mi
9:54 AM38 °FSunny.12 mph76%29.75 "Hg10 mi
8:54 AM36 °FSunny.12 mph79%29.77 "Hg10 mi
7:54 AM35 °FSunny.12 mph82%29.77 "Hg10 mi
6:54 AM34 °FClear.10 mph85%29.78 "Hg10 mi
5:54 AM35 °FClear.10 mph82%29.79 "Hg10 mi
4:54 AM35 °FClear.9 mph82%29.80 "Hg10 mi
Weather by CustomWeather, © 2014

See weather overviewHow to use our weather pages